Location: Aytr�
(46.1357°N, 1.1145°W)
Time: 11:51:36
(UTC+00:00)

ISS - Visible Passes

Search period start: 18 September 2021 00:00
Search period end: 28 September 2021 00:00
Orbit: 419 x 423 km, 51.6° (Epoch: 18 September)

Date Brightness Start Highest point End Pass type
(mag) Time Alt. Az. Time Alt. Az. Time Alt. Az.
18 Sep -2.9 18:50:30 10° SSW 18:53:31 32° SE 18:56:29 11° ENE visible
18 Sep -2.5 20:26:58 10° W 20:29:30 41° WNW 20:29:30 41° WNW visible
19 Sep -3.6 19:39:58 10° WSW 19:43:20 72° NNW 19:44:44 32° NE visible
19 Sep -0.3 21:17:28 10° WNW 21:17:45 12° WNW 21:17:45 12° WNW visible
20 Sep -3.8 18:53:04 10° WSW 18:56:26 79° SSE 18:59:50 10° ENE visible
20 Sep -1.9 20:30:23 10° WNW 20:32:51 31° NW 20:32:51 31° NW visible
21 Sep -2.6 19:43:18 10° W 19:46:31 40° NNW 19:47:52 27° NE visible
21 Sep -0.2 21:20:48 10° WNW 21:20:51 10° WNW 21:20:51 10° WNW visible
22 Sep -3.0 18:56:14 10° W 18:59:32 51° NNW 19:02:47 10° ENE visible
22 Sep -1.5 20:33:48 10° WNW 20:35:47 25° NW 20:35:47 25° NW visible
23 Sep -2.3 19:46:44 10° WNW 19:49:48 31° N 19:50:40 27° NNE visible
24 Sep -2.4 18:59:38 10° WNW 19:02:46 34° N 19:05:31 12° NE visible
24 Sep -1.2 20:37:00 10° WNW 20:38:30 22° NW 20:38:30 22° NW visible
25 Sep -2.5 19:50:01 10° WNW 19:53:06 32° N 19:53:20 31° NNE visible
26 Sep -2.3 19:03:00 10° WNW 19:06:03 30° N 19:08:09 16° NE visible
26 Sep -1.0 20:40:01 10° WNW 20:41:08 19° NW 20:41:08 19° NW visible
27 Sep -2.7 19:53:06 10° WNW 19:55:57 40° N 19:55:57 40° N visible
